| time (UTC) | temp F | wind direction | speed knots | gust knots | rain 1hr in | rain 24hr in | rain mn in | humidity % | barometer mb |
| 20260507134322 | 50 | 41 | 2.6 | 4.3 | 0.00 | 0.23 | 0.23 | 77 | 1006.2 |
| 20260507133817 | 50 | 7 | 2.6 | 2.6 | 0.00 | 0.23 | 0.23 | 77 | 1006.2 |
| 20260507133313 | 50 | 44 | 1.7 | 4.3 | 0.00 | 0.23 | 0.23 | 81 | 1006.3 |
| 20260507132812 | 50 | 35 | 0.9 | 1.7 | 0.00 | 0.23 | 0.23 | 82 | 1006.1 |
| 20260507132308 | 50 | 22 | 1.7 | 5.2 | 0.00 | 0.23 | 0.23 | 83 | 1006.4 |
| 20260507131805 | 49 | 22 | 1.7 | 5.2 | 0.00 | 0.23 | 0.23 | 83 | 1006.0 |
| 20260507131302 | 50 | 16 | 1.7 | 5.2 | 0.00 | 0.23 | 0.23 | 82 | 1006.3 |
| 20260507130759 | 49 | 26 | 1.7 | 4.3 | 0.00 | 0.23 | 0.23 | 83 | 1006.4 |
| 20260507130256 | 49 | 24 | 1.7 | 4.3 | 0.00 | 0.23 | 0.23 | 85 | 1006.4 |
| 20260507125755 | 49 | 21 | 2.6 | 2.6 | 0.00 | 0.23 | 0.23 | 85 | 1006.5 |
| 20260507125252 | 49 | 4 | 2.6 | 5.2 | 0.00 | 0.23 | 0.23 | 85 | 1006.5 |
| 20260507124749 | 49 | 280 | 2.6 | 7.0 | 0.00 | 0.23 | 0.23 | 86 | 1006.3 |
| 20260507124245 | 48 | 15 | 3.5 | 5.2 | 0.00 | 0.23 | 0.23 | 87 | 1006.2 |
| 20260507123744 | 48 | 18 | 3.5 | 5.2 | 0.00 | 0.23 | 0.23 | 87 | 1005.9 |
| 20260507123241 | 48 | 26 | 2.6 | 5.2 | 0.00 | 0.23 | 0.23 | 89 | 1006.3 |
| 20260507122737 | 48 | 23 | 2.6 | 6.1 | 0.00 | 0.23 | 0.23 | 88 | 1006.6 |
| 20260507122232 | 48 | 27 | 0.9 | 1.7 | 0.00 | 0.23 | 0.23 | 91 | 1006.1 |
| 20260507121728 | 47 | 331 | 0.9 | 2.6 | 0.00 | 0.23 | 0.23 | 91 | 1006.2 |
| 20260507121224 | 47 | 7 | 0.9 | 2.6 | 0.00 | 0.23 | 0.23 | 92 | 1006.5 |
| 20260507120721 | 46 | 21 | 1.7 | 2.6 | 0.00 | 0.23 | 0.23 | 94 | 1006.6 |
| 20260507120218 | 46 | 40 | 0.9 | 0.9 | 0.00 | 0.23 | 0.23 | 94 | 1006.9 |
| 20260507115714 | 46 | 117 | 0.9 | 0.9 | 0.00 | 0.23 | 0.23 | 94 | 1006.9 |
| 20260507115210 | 46 | 27 | 0.9 | 1.7 | 0.00 | 0.23 | 0.23 | 96 | 1006.5 |
| 20260507114705 | 46 | 53 | 0.0 | 0.9 | 0.00 | 0.23 | 0.23 | 96 | 1006.7 |
| 20260507114203 | 46 | 95 | 0.0 | 0.9 | 0.00 | 0.23 | 0.23 | 95 | 1007.3 |
| 20260507113700 | 46 | 359 | 0.9 | 1.7 | 0.00 | 0.23 | 0.23 | 94 | 1007.0 |
| 20260507113157 | 46 | 289 | 0.9 | 2.6 | 0.00 | 0.23 | 0.23 | 96 | 1006.6 |
| 20260507112655 | 46 | 25 | 1.7 | 2.6 | 0.00 | 0.23 | 0.23 | 96 | 1006.6 |
| 20260507112152 | 45 | 6 | 0.9 | 0.9 | 0.00 | 0.23 | 0.23 | 95 | 1007.3 |
| 20260507111649 | 45 | 315 | 0.9 | 1.7 | 0.00 | 0.23 | 0.23 | 97 | 1007.2 |
| 20260507111145 | 45 | 283 | 0.9 | 1.7 | 0.00 | 0.23 | 0.23 | 98 | 1006.9 |
| 20260507110641 | 45 | 24 | 0.9 | 1.7 | 0.00 | 0.23 | 0.23 | 98 | 1006.5 |
| 20260507110138 | 45 | 356 | 0.9 | 2.6 | 0.00 | 0.23 | 0.23 | 99 | 1006.4 |
| 20260507105635 | 45 | 8 | 1.7 | 1.7 | 0.00 | 0.23 | 0.23 | 99 | 1006.5 |
| 20260507105131 | 44 | 311 | 0.9 | 1.7 | 0.00 | 0.23 | 0.23 | 99 | 1006.6 |
| 20260507104629 | 45 | 307 | 0.9 | 0.9 | 0.00 | 0.23 | 0.23 | 99 | 1006.1 |
| 20260507104125 | 45 | 29 | 0.0 | 0.9 | 0.00 | 0.23 | 0.23 | 99 | 1005.9 |
| 20260507103621 | 45 | 347 | 1.7 | 1.7 | 0.00 | 0.23 | 0.23 | 99 | 1006.1 |
| 20260507103118 | 44 | 51 | 0.9 | 1.7 | 0.00 | 0.23 | 0.23 | 99 | 1006.3 |
| 20260507102615 | 44 | 333 | 0.9 | 1.7 | 0.00 | 0.23 | 0.23 | 99 | 1006.2 |
| 20260507102111 | 44 | 332 | 1.7 | 1.7 | 0.00 | 0.23 | 0.23 | 99 | 1006.1 |
| 20260507101607 | 44 | 10 | 0.0 | 0.9 | 0.00 | 0.23 | 0.23 | 99 | 1005.9 |
| 20260507101103 | 44 | 286 | 0.9 | 1.7 | 0.00 | 0.23 | 0.23 | 99 | 1005.9 |
| 20260507100600 | 44 | 14 | 1.7 | 1.7 | 0.00 | 0.23 | 0.23 | 99 | 1006.0 |
| 20260507100058 | 44 | 307 | 0.0 | 1.7 | 0.00 | 0.23 | 0.23 | 99 | 1006.4 |
| 20260507095556 | 44 | 348 | 0.0 | 1.7 | 0.00 | 0.23 | 0.23 | 99 | 1006.2 |
| 20260507095052 | 44 | 6 | 1.7 | 1.7 | 0.00 | 0.23 | 0.23 | 99 | 1005.8 |
| 20260507094548 | 44 | 349 | 0.9 | 0.9 | 0.00 | 0.23 | 0.23 | 99 | 1005.7 |
| 20260507094046 | 45 | 3 | 0.9 | 0.9 | 0.00 | 0.23 | 0.23 | 99 | 1006.1 |
| 20260507093543 | 45 | 343 | 2.6 | 2.6 | 0.00 | 0.23 | 0.23 | 99 | 1005.8 |
| 20260507093042 | 45 | 27 | 0.0 | 0.9 | 0.00 | 0.23 | 0.23 | 99 | 1006.1 |
| 20260507092537 | 45 | 22 | 0.0 | 0.0 | 0.00 | 0.23 | 0.23 | 99 | 1006.4 |
| 20260507092034 | 45 | 312 | 0.9 | 0.9 | 0.00 | 0.23 | 0.23 | 99 | 1006.2 |
| 20260507091531 | 45 | 333 | 0.9 | 1.7 | 0.00 | 0.23 | 0.23 | 99 | 1005.8 |
| 20260507091028 | 45 | 11 | 0.0 | 0.0 | 0.00 | 0.23 | 0.23 | 99 | 1005.7 |
| 20260507090523 | 45 | 312 | 0.9 | 1.7 | 0.00 | 0.23 | 0.23 | 99 | 1005.7 |
| 20260507090020 | 45 | 20 | 0.0 | 1.7 | 0.00 | 0.23 | 0.23 | 99 | 1005.4 |
| 20260507085517 | 45 | 349 | 1.7 | 2.6 | 0.00 | 0.23 | 0.23 | 99 | 1005.8 |
| 20260507085014 | 45 | 12 | 0.9 | 1.7 | 0.00 | 0.23 | 0.23 | 99 | 1005.5 |
| 20260507084511 | 45 | 11 | 0.0 | 1.7 | 0.00 | 0.23 | 0.23 | 99 | 1005.8 |
| 20260507084008 | 46 | 318 | 0.0 | 1.7 | 0.00 | 0.23 | 0.23 | 99 | 1005.5 |
| 20260507083504 | 46 | 12 | 0.0 | 2.6 | 0.00 | 0.23 | 0.23 | 99 | 1005.5 |
| 20260507083001 | 46 | 33 | 1.7 | 1.7 | 0.00 | 0.23 | 0.23 | 99 | 1005.3 |
| 20260507082457 | 46 | 13 | 1.7 | 4.3 | 0.00 | 0.23 | 0.23 | 99 | 1005.7 |
| 20260507081953 | 47 | 274 | 0.9 | 0.9 | 0.00 | 0.23 | 0.23 | 99 | 1005.6 |
| 20260507081449 | 47 | 4 | 0.9 | 0.9 | 0.00 | 0.23 | 0.23 | 99 | 1005.4 |
| 20260507080947 | 47 | 37 | 1.7 | 1.7 | 0.00 | 0.23 | 0.23 | 99 | 1005.5 |
| 20260507080443 | 47 | 313 | 0.0 | 1.7 | 0.05 | 0.23 | 0.23 | 99 | 1005.6 |
| 20260507075938 | 47 | 9 | 0.9 | 0.9 | 0.05 | 0.23 | 0.23 | 99 | 1005.4 |
| 20260507075435 | 47 | 318 | 0.9 | 1.7 | 0.00 | 0.22 | 0.22 | 99 | 1005.3 |
| 20260507074931 | 47 | 310 | 0.9 | 1.7 | 0.07 | 0.22 | 0.22 | 99 | 1005.4 |
| 20260507074428 | 47 | 294 | 0.9 | 0.9 | 0.07 | 0.22 | 0.22 | 99 | 1005.3 |
| 20260507073926 | 48 | 344 | 1.7 | 1.7 | 0.00 | 0.21 | 0.21 | 99 | 1005.1 |
| 20260507073422 | 48 | 27 | 0.9 | 1.7 | 0.05 | 0.21 | 0.21 | 99 | 1005.3 |
| 20260507072919 | 48 | 5 | 0.0 | 0.9 | 0.05 | 0.21 | 0.21 | 99 | 1005.3 |
| 20260507072417 | 48 | 13 | 0.0 | 0.9 | 0.07 | 0.20 | 0.20 | 99 | 1005.3 |
| 20260507071914 | 48 | 358 | 0.0 | 0.9 | 0.12 | 0.20 | 0.20 | 99 | 1005.3 |
| 20260507071411 | 48 | 27 | 0.0 | 0.9 | 0.05 | 0.19 | 0.19 | 99 | 1005.0 |
| 20260507070907 | 48 | 21 | 0.9 | 2.6 | 0.07 | 0.18 | 0.18 | 99 | 1004.8 |
| 20260507070405 | 48 | 352 | 0.9 | 2.6 | 0.12 | 0.18 | 0.18 | 99 | 1004.8 |
| 20260507065901 | 48 | 20 | 2.6 | 4.3 | 0.05 | 0.17 | 0.17 | 99 | 1004.7 |
| 20260507065358 | 48 | 50 | 1.7 | 2.6 | 0.07 | 0.16 | 0.16 | 99 | 1004.8 |
| 20260507064855 | 48 | 36 | 1.7 | 2.6 | 0.12 | 0.16 | 0.16 | 99 | 1004.6 |
| 20260507064353 | 48 | 38 | 1.7 | 2.6 | 0.12 | 0.15 | 0.15 | 99 | 1004.4 |
| 20260507063851 | 48 | 11 | 0.0 | 1.7 | 0.14 | 0.14 | 0.14 | 99 | 1004.4 |
| 20260507063348 | 48 | 24 | 2.6 | 4.3 | 0.12 | 0.13 | 0.13 | 99 | 1004.3 |
| 20260507062845 | 48 | 20 | 1.7 | 5.2 | 0.12 | 0.12 | 0.12 | 99 | 1004.3 |
| 20260507062341 | 48 | 21 | 1.7 | 4.3 | 0.12 | 0.11 | 0.11 | 99 | 1004.3 |
| 20260507061839 | 49 | 354 | 0.0 | 0.9 | 0.12 | 0.10 | 0.10 | 99 | 1004.7 |
| 20260507061337 | 49 | 25 | 0.9 | 2.6 | 0.19 | 0.09 | 0.09 | 99 | 1005.1 |
| 20260507060835 | 49 | 343 | 1.7 | 1.7 | 0.17 | 0.08 | 0.08 | 99 | 1005.1 |
| 20260507060332 | 49 | 10 | 0.9 | 2.6 | 0.12 | 0.06 | 0.06 | 99 | 1005.2 |
| 20260507055828 | 50 | 297 | 2.6 | 4.3 | 0.12 | 0.05 | 0.05 | 99 | 1005.3 |
| 20260507055323 | 50 | 275 | 0.9 | 1.7 | 0.05 | 0.04 | 0.04 | 99 | 1004.9 |
| 20260507054820 | 50 | 337 | 0.0 | 1.7 | 0.00 | 0.03 | 0.03 | 99 | 1004.4 |
| 20260507054316 | 50 | 358 | 0.0 | 0.9 | 0.00 | 0.03 | 0.03 | 99 | 1004.1 |
| 20260507053814 | 50 | 259 | 0.9 | 1.7 | 0.00 | 0.03 | 0.03 | 99 | 1004.2 |
| 20260507053312 | 50 | 305 | 0.9 | 1.7 | 0.00 | 0.03 | 0.03 | 99 | 1004.1 |
| 20260507052811 | 50 | 351 | 0.0 | 0.9 | 0.00 | 0.03 | 0.03 | 99 | 1004.4 |
| 20260507052307 | 51 | 227 | 3.5 | 5.2 | 0.00 | 0.03 | 0.03 | 99 | 1004.6 |
| 20260507051805 | 51 | 258 | 1.7 | 4.3 | 0.00 | 0.03 | 0.03 | 99 | 1004.6 |
| 20260507051302 | 51 | 230 | 0.9 | 0.9 | 0.00 | 0.03 | 0.03 | 99 | 1004.4 |
| 20260507050758 | 51 | 336 | 0.9 | 0.9 | 0.00 | 0.03 | 0.03 | 99 | 1004.2 |
| 20260507050255 | 51 | 43 | 0.0 | 0.9 | 0.07 | 0.03 | 0.03 | 99 | 1004.3 |
| 20260507045751 | 51 | 24 | 0.0 | 0.0 | 0.07 | 0.03 | 0.03 | 99 | 1004.2 |
| 20260507045247 | 51 | 35 | 0.0 | 0.0 | 0.07 | 0.02 | 0.02 | 99 | 1004.3 |
| 20260507044745 | 51 | 26 | 0.0 | 0.0 | 0.07 | 0.02 | 0.02 | 99 | 1004.3 |
| 20260507044242 | 51 | 357 | 0.0 | 0.9 | 0.00 | 0.01 | 0.01 | 99 | 1004.3 |
| 20260507043738 | 51 | 97 | 0.9 | 0.9 | 0.00 | 0.01 | 0.01 | 99 | 1004.4 |
| 20260507043235 | 51 | 80 | 0.0 | 0.9 | 0.00 | 0.01 | 0.01 | 99 | 1004.4 |
| 20260507042731 | 51 | 101 | 0.0 | 0.9 | 0.00 | 0.01 | 0.01 | 99 | 1004.4 |
| 20260507042226 | 51 | 119 | 0.9 | 1.7 | 0.00 | 0.01 | 0.01 | 99 | 1004.4 |
| 20260507041724 | 51 | 99 | 0.0 | 1.7 | 0.00 | 0.01 | 0.01 | 99 | 1004.4 |
| 20260507041220 | 51 | 64 | 0.0 | 0.9 | 0.05 | 0.01 | 0.01 | 99 | 1004.6 |
| 20260507040717 | 51 | 311 | 0.0 | 1.7 | 0.05 | 0.01 | 0.01 | 99 | 1004.5 |
| 20260507040213 | 51 | 98 | 0.9 | 1.7 | 0.00 | 0.00 | 0.00 | 99 | 1004.5 |
| 20260507035709 | 51 | 61 | 0.0 | 1.7 | 0.00 | 0.67 | 0.67 | 99 | 1004.3 |
| 20260507035205 | 51 | 82 | 0.0 | 0.9 | 0.00 | 0.67 | 0.67 | 99 | 1004.6 |
| 20260507034702 | 51 | 59 | 0.0 | 0.9 | 0.00 | 0.67 | 0.67 | 99 | 1004.5 |
| 20260507034200 | 51 | 70 | 0.0 | 0.9 | 0.00 | 0.67 | 0.67 | 99 | 1004.4 |
| 20260507033658 | 51 | 57 | 0.9 | 1.7 | 0.00 | 0.67 | 0.67 | 99 | 1004.6 |
| 20260507033155 | 51 | 142 | 0.9 | 1.7 | 0.00 | 0.67 | 0.67 | 99 | 1004.6 |
| 20260507032652 | 51 | 194 | 2.6 | 2.6 | 0.00 | 0.67 | 0.67 | 99 | 1004.7 |
| 20260507032148 | 52 | 121 | 0.9 | 2.6 | 0.00 | 0.67 | 0.67 | 99 | 1004.9 |
| 20260507031645 | 52 | 208 | 0.9 | 1.7 | 0.00 | 0.67 | 0.67 | 99 | 1004.5 |
| 20260507031141 | 52 | 121 | 2.6 | 2.6 | 0.00 | 0.67 | 0.67 | 99 | 1004.9 |
| 20260507030638 | 52 | 145 | 0.9 | 1.7 | 0.07 | 0.67 | 0.67 | 99 | 1005.0 |
| 20260507030136 | 52 | 75 | 0.0 | 0.9 | 0.07 | 0.67 | 0.67 | 99 | 1005.1 |
| 20260507025633 | 52 | 95 | 0.9 | 0.9 | 0.05 | 0.66 | 0.66 | 99 | 1005.1 |
| 20260507025130 | 51 | 92 | 0.0 | 0.9 | 0.12 | 0.66 | 0.66 | 99 | 1005.1 |
| 20260507024628 | 51 | 202 | 0.9 | 4.3 | 0.07 | 0.65 | 0.65 | 99 | 1005.3 |
| 20260507024125 | 51 | 87 | 0.0 | 0.9 | 0.05 | 0.64 | 0.64 | 99 | 1005.5 |
| 20260507023620 | 51 | 78 | 0.0 | 0.0 | 0.12 | 0.64 | 0.64 | 99 | 1005.5 |
| 20260507023118 | 51 | 79 | 0.0 | 0.0 | 0.12 | 0.63 | 0.63 | 99 | 1005.4 |
| 20260507022615 | 51 | 94 | 0.0 | 0.9 | 0.17 | 0.62 | 0.62 | 99 | 1005.6 |
| 20260507022110 | 51 | 80 | 0.0 | 0.9 | 0.12 | 0.60 | 0.60 | 99 | 1005.5 |
| 20260507021607 | 51 | 92 | 0.0 | 0.9 | 0.12 | 0.59 | 0.59 | 99 | 1005.8 |
| 20260507021103 | 51 | 105 | 0.0 | 0.9 | 0.19 | 0.58 | 0.58 | 99 | 1005.7 |
| 20260507020602 | 52 | 92 | 0.0 | 0.0 | 0.19 | 0.57 | 0.57 | 99 | 1005.8 |
| 20260507020057 | 52 | 159 | 0.9 | 1.7 | 0.12 | 0.55 | 0.55 | 99 | 1006.0 |
| 20260507015556 | 52 | 113 | 0.0 | 0.9 | 0.12 | 0.54 | 0.54 | 99 | 1005.9 |
| 20260507015053 | 52 | 96 | 0.0 | 0.9 | 0.17 | 0.53 | 0.53 | 99 | 1006.3 |
| 20260507014549 | 52 | 103 | 0.0 | 0.9 | 0.19 | 0.52 | 0.52 | 99 | 1006.2 |
| 20260507014045 | 52 | 123 | 0.9 | 1.7 | 0.12 | 0.50 | 0.50 | 99 | 1006.3 |
| 20260507013542 | 52 | 111 | 0.9 | 0.9 | 0.12 | 0.49 | 0.49 | 99 | 1006.4 |
| 20260507013039 | 52 | 99 | 0.0 | 0.9 | 0.19 | 0.48 | 0.48 | 99 | 1006.3 |
| 20260507012536 | 52 | 94 | 0.0 | 0.9 | 0.17 | 0.47 | 0.47 | 99 | 1006.4 |
| 20260507012032 | 52 | 96 | 0.0 | 0.9 | 0.12 | 0.45 | 0.45 | 99 | 1006.4 |
| 20260507011530 | 52 | 85 | 0.0 | 0.9 | 0.19 | 0.44 | 0.44 | 99 | 1006.6 |
| 20260507011026 | 52 | 92 | 0.0 | 0.9 | 0.19 | 0.43 | 0.43 | 99 | 1006.9 |
| 20260507010520 | 52 | 114 | 0.9 | 1.7 | 0.19 | 0.41 | 0.41 | 99 | 1007.0 |
| 20260507010017 | 52 | 83 | 0.0 | 0.9 | 0.17 | 0.40 | 0.40 | 99 | 1007.1 |
| 20260507005514 | 52 | 120 | 0.9 | 0.9 | 0.17 | 0.38 | 0.38 | 99 | 1007.4 |
| 20260507005005 | 52 | 116 | 0.0 | 0.9 | 0.19 | 0.37 | 0.37 | 99 | 1007.0 |
| 20260507004502 | 52 | 77 | 0.9 | 0.9 | 0.12 | 0.35 | 0.35 | 99 | 1007.5 |
| 20260507004000 | 52 | 123 | 0.9 | 1.7 | 0.12 | 0.34 | 0.34 | 99 | 1007.2 |
| 20260507003454 | 52 | 113 | 0.0 | 0.9 | 0.12 | 0.33 | 0.33 | 99 | 1007.3 |
| 20260507002949 | 52 | 96 | 0.9 | 1.7 | 0.05 | 0.32 | 0.32 | 99 | 1007.3 |
| 20260507002446 | 53 | 126 | 0.9 | 2.6 | 0.07 | 0.31 | 0.31 | 99 | 1007.3 |
| 20260507001938 | 53 | 147 | 0.9 | 1.7 | 0.14 | 0.31 | 0.31 | 99 | 1007.4 |
| 20260507001434 | 53 | 104 | 0.0 | 1.7 | 0.12 | 0.30 | 0.30 | 99 | 1007.4 |
| 20260507000932 | 52 | 163 | 0.9 | 2.6 | 0.12 | 0.29 | 0.29 | 99 | 1007.5 |
| 20260507000427 | 52 | 114 | 0.9 | 1.7 | 0.12 | 0.28 | 0.28 | 99 | 1007.2 |
| 20260506235923 | 52 | 137 | 0.9 | 2.6 | 0.05 | 0.27 | 0.27 | 99 | 1007.4 |
| 20260506235420 | 52 | 145 | 0.9 | 1.7 | 0.07 | 0.26 | 0.26 | 99 | 1007.5 |
| 20260506234910 | 53 | 107 | 1.7 | 1.7 | 0.12 | 0.26 | 0.26 | 99 | 1007.4 |
| 20260506234408 | 52 | 244 | 2.6 | 2.6 | 0.05 | 0.25 | 0.25 | 99 | 1007.4 |
| 20260506233906 | 52 | 149 | 0.9 | 1.7 | 0.07 | 0.24 | 0.24 | 99 | 1007.4 |
| 20260506233401 | 52 | 197 | 0.9 | 1.7 | 0.12 | 0.24 | 0.24 | 99 | 1007.5 |
| 20260506232858 | 52 | 172 | 0.9 | 0.9 | 0.12 | 0.23 | 0.23 | 99 | 1007.6 |
| 20260506232354 | 52 | 99 | 0.0 | 1.7 | 0.12 | 0.22 | 0.22 | 99 | 1007.3 |
| 20260506231850 | 52 | 145 | 0.9 | 1.7 | 0.12 | 0.21 | 0.21 | 99 | 1007.4 |
| 20260506231348 | 52 | 96 | 0.0 | 2.6 | 0.14 | 0.20 | 0.20 | 99 | 1007.7 |
| 20260506230846 | 52 | 129 | 0.0 | 0.9 | 0.07 | 0.19 | 0.19 | 99 | 1007.8 |
| 20260506230342 | 52 | 100 | 0.0 | 1.7 | 0.05 | 0.18 | 0.18 | 99 | 1007.7 |
| 20260506225838 | 52 | 141 | 0.9 | 0.9 | 0.05 | 0.18 | 0.18 | 99 | 1007.9 |
| 20260506225336 | 53 | 122 | 0.9 | 1.7 | 0.07 | 0.17 | 0.17 | 99 | 1008.0 |
| 20260506224833 | 53 | 184 | 1.7 | 1.7 | 0.12 | 0.17 | 0.17 | 99 | 1007.7 |
| 20260506224330 | 53 | 149 | 2.6 | 2.6 | 0.05 | 0.16 | 0.16 | 99 | 1007.7 |
| 20260506223826 | 53 | 164 | 0.9 | 1.7 | 0.07 | 0.15 | 0.15 | 99 | 1007.8 |
| 20260506223321 | 53 | 141 | 0.9 | 4.3 | 0.12 | 0.15 | 0.15 | 99 | 1007.9 |
| 20260506222819 | 53 | 143 | 0.9 | 1.7 | 0.12 | 0.14 | 0.14 | 99 | 1008.0 |
| 20260506222314 | 53 | 180 | 1.7 | 4.3 | 0.12 | 0.13 | 0.13 | 99 | 1008.1 |
| 20260506221813 | 53 | 113 | 0.9 | 2.6 | 0.12 | 0.12 | 0.12 | 99 | 1008.1 |
| 20260506221310 | 53 | 235 | 1.7 | 2.6 | 0.12 | 0.11 | 0.11 | 99 | 1008.3 |
| 20260506220807 | 53 | 121 | 0.9 | 1.7 | 0.12 | 0.10 | 0.10 | 99 | 1008.5 |
| 20260506220302 | 53 | 157 | 0.9 | 1.7 | 0.12 | 0.09 | 0.09 | 99 | 1008.9 |
| 20260506215759 | 53 | 216 | 2.6 | 5.2 | 0.05 | 0.08 | 0.08 | 99 | 1008.8 |
| 20260506215255 | 53 | 178 | 1.7 | 4.3 | 0.07 | 0.07 | 0.07 | 99 | 1008.8 |
| 20260506214751 | 54 | 216 | 0.9 | 1.7 | 0.14 | 0.07 | 0.07 | 99 | 1008.8 |
| 20260506214248 | 54 | 132 | 0.9 | 1.7 | 0.07 | 0.06 | 0.06 | 99 | 1008.6 |
| 20260506213746 | 54 | 158 | 0.9 | 4.3 | 0.00 | 0.05 | 0.05 | 99 | 1008.8 |
| 20260506213243 | 54 | 140 | 0.9 | 1.7 | 0.05 | 0.05 | 0.05 | 99 | 1008.8 |
| 20260506212740 | 54 | 117 | 2.6 | 2.6 | 0.12 | 0.05 | 0.05 | 99 | 1008.6 |
| 20260506212236 | 54 | 172 | 0.9 | 5.2 | 0.12 | 0.04 | 0.04 | 99 | 1008.8 |
| 20260506211731 | 54 | 140 | 0.9 | 2.6 | 0.05 | 0.03 | 0.03 | 99 | 1009.0 |
| 20260506211228 | 54 | 92 | 0.0 | 0.9 | 0.07 | 0.02 | 0.02 | 99 | 1008.8 |
| 20260506210725 | 54 | 158 | 0.9 | 1.7 | 0.12 | 0.02 | 0.02 | 99 | 1009.2 |
| 20260506210222 | 54 | 288 | 0.0 | 1.7 | 0.05 | 0.01 | 0.01 | 98 | 1009.0 |
| 20260506205719 | 55 | 172 | 0.9 | 1.7 | 0.00 | 0.00 | 0.00 | 96 | 1008.9 |
| 20260506205214 | 55 | 248 | 0.9 | 0.9 | 0.00 | 0.00 | 0.00 | 95 | 1009.1 |
| 20260506204712 | 55 | 241 | 0.9 | 1.7 | 0.00 | 0.00 | 0.00 | 94 | 1009.0 |
| 20260506204209 | 55 | 76 | 0.0 | 0.9 | 0.00 | 0.00 | 0.00 | 94 | 1008.9 |
| 20260506203707 | 56 | 160 | 0.9 | 1.7 | 0.00 | 0.00 | 0.00 | 91 | 1008.9 |
| 20260506203204 | 56 | 213 | 1.7 | 1.7 | 0.00 | 0.00 | 0.00 | 90 | 1009.3 |
| 20260506202702 | 56 | 145 | 0.9 | 4.3 | 0.00 | 0.00 | 0.00 | 89 | 1009.2 |
| 20260506202157 | 56 | 96 | 0.0 | 2.6 | 0.00 | 0.00 | 0.00 | 89 | 1009.0 |
| 20260506201654 | 56 | 118 | 0.9 | 1.7 | 0.00 | 0.00 | 0.00 | 89 | 1008.8 |
| 20260506201150 | 56 | 80 | 0.0 | 2.6 | 0.00 | 0.00 | 0.00 | 89 | 1008.7 |
| 20260506200648 | 56 | 194 | 0.9 | 5.2 | 0.00 | 0.00 | 0.00 | 89 | 1008.9 |
| 20260506200144 | 56 | 248 | 1.7 | 1.7 | 0.00 | 0.00 | 0.00 | 89 | 1009.2 |
| 20260506195641 | 56 | 75 | 0.9 | 1.7 | 0.00 | 0.00 | 0.00 | 89 | 1008.7 |
| 20260506195137 | 56 | 144 | 1.7 | 1.7 | 0.00 | 0.00 | 0.00 | 88 | 1009.0 |
| 20260506194635 | 56 | 200 | 2.6 | 2.6 | 0.00 | 0.00 | 0.00 | 89 | 1009.2 |
| 20260506194131 | 56 | 197 | 1.7 | 2.6 | 0.00 | 0.00 | 0.00 | 89 | 1009.6 |
| 20260506193629 | 56 | 215 | 1.7 | 4.3 | 0.00 | 0.00 | 0.00 | 88 | 1009.3 |
| 20260506193126 | 56 | 179 | 0.9 | 4.3 | 0.00 | 0.00 | 0.00 | 89 | 1008.9 |
| 20260506192622 | 56 | 148 | 1.7 | 4.3 | 0.00 | 0.00 | 0.00 | 88 | 1008.9 |
| 20260506192118 | 56 | 161 | 0.9 | 4.3 | 0.00 | 0.00 | 0.00 | 88 | 1009.5 |
| 20260506191615 | 57 | 227 | 0.9 | 2.6 | 0.00 | 0.00 | 0.00 | 88 | 1009.0 |
| 20260506191111 | 57 | 133 | 0.0 | 0.9 | 0.00 | 0.00 | 0.00 | 88 | 1009.3 |
| 20260506190609 | 57 | 149 | 0.9 | 2.6 | 0.00 | 0.00 | 0.00 | 88 | 1009.0 |
| 20260506190105 | 57 | 176 | 0.9 | 4.3 | 0.00 | 0.00 | 0.00 | 87 | 1009.5 |
| 20260506185603 | 57 | 201 | 0.9 | 1.7 | 0.00 | 0.00 | 0.00 | 88 | 1009.2 |
| 20260506185059 | 57 | 203 | 1.7 | 2.6 | 0.00 | 0.00 | 0.00 | 88 | 1009.3 |
| 20260506184556 | 57 | 147 | 0.9 | 2.6 | 0.00 | 0.00 | 0.00 | 87 | 1009.4 |
| 20260506184054 | 57 | 135 | 1.7 | 2.6 | 0.00 | 0.00 | 0.00 | 87 | 1009.4 |
| 20260506183549 | 57 | 179 | 1.7 | 2.6 | 0.00 | 0.00 | 0.00 | 87 | 1009.4 |
| 20260506183046 | 57 | 244 | 2.6 | 2.6 | 0.00 | 0.00 | 0.00 | 87 | 1009.6 |
| 20260506182544 | 57 | 142 | 1.7 | 1.7 | 0.00 | 0.00 | 0.00 | 87 | 1009.6 |
| 20260506182041 | 57 | 99 | 0.9 | 1.7 | 0.00 | 0.00 | 0.00 | 87 | 1009.5 |
| 20260506181539 | 57 | 122 | 0.9 | 2.6 | 0.00 | 0.00 | 0.00 | 87 | 1009.5 |
| 20260506181035 | 57 | 102 | 0.0 | 0.9 | 0.00 | 0.00 | 0.00 | 87 | 1009.7 |
| 20260506180532 | 57 | 132 | 0.9 | 1.7 | 0.00 | 0.00 | 0.00 | 87 | 1009.7 |
| 20260506180028 | 57 | 128 | 0.9 | 0.9 | 0.00 | 0.00 | 0.00 | 88 | 1009.9 |
| 20260506175525 | 57 | 174 | 0.9 | 0.9 | 0.00 | 0.00 | 0.00 | 88 | 1010.0 |
| 20260506175021 | 57 | 70 | 0.9 | 1.7 | 0.00 | 0.00 | 0.00 | 88 | 1010.1 |
| 20260506174520 | 57 | 118 | 0.9 | 1.7 | 0.00 | 0.00 | 0.00 | 88 | 1009.8 |
| 20260506174016 | 57 | 175 | 1.7 | 4.3 | 0.00 | 0.00 | 0.00 | 89 | 1010.2 |
| 20260506173514 | 57 | 145 | 0.9 | 5.2 | 0.00 | 0.00 | 0.00 | 89 | 1010.2 |
| 20260506173010 | 57 | 187 | 1.7 | 4.3 | 0.00 | 0.00 | 0.00 | 88 | 1010.2 |
| 20260506172508 | 57 | 103 | 0.0 | 1.7 | 0.00 | 0.00 | 0.00 | 89 | 1010.2 |
| 20260506172004 | 57 | 212 | 1.7 | 2.6 | 0.00 | 0.00 | 0.00 | 89 | 1010.3 |
| 20260506171501 | 57 | 147 | 0.9 | 2.6 | 0.00 | 0.00 | 0.00 | 89 | 1010.3 |
| 20260506170959 | 57 | 110 | 0.0 | 1.7 | 0.00 | 0.00 | 0.00 | 89 | 1010.1 |
| 20260506170455 | 57 | 64 | 0.0 | 1.7 | 0.00 | 0.00 | 0.00 | 89 | 1010.2 |
| 20260506165948 | 56 | 140 | 1.7 | 2.6 | 0.00 | 0.00 | 0.00 | 90 | 1010.4 |
| 20260506165447 | 56 | 136 | 2.6 | 2.6 | 0.00 | 0.00 | 0.00 | 90 | 1010.4 |
| 20260506164942 | 56 | 211 | 2.6 | 2.6 | 0.00 | 0.00 | 0.00 | 90 | 1010.9 |
| 20260506164439 | 56 | 215 | 2.6 | 2.6 | 0.00 | 0.00 | 0.00 | 90 | 1010.8 |
| 20260506163937 | 56 | 182 | 1.7 | 2.6 | 0.00 | 0.00 | 0.00 | 90 | 1010.9 |
| 20260506163431 | 56 | 140 | 0.9 | 1.7 | 0.00 | 0.00 | 0.00 | 90 | 1010.9 |
| 20260506162926 | 56 | 139 | 0.9 | 1.7 | 0.00 | 0.00 | 0.00 | 90 | 1010.8 |
| 20260506162424 | 56 | 138 | 0.0 | 2.6 | 0.00 | 0.00 | 0.00 | 90 | 1011.0 |
| 20260506161921 | 56 | 176 | 2.6 | 2.6 | 0.00 | 0.00 | 0.00 | 90 | 1011.0 |
| 20260506161420 | 56 | 244 | 2.6 | 4.3 | 0.00 | 0.00 | 0.00 | 90 | 1010.9 |
| 20260506160911 | 56 | 101 | 1.7 | 2.6 | 0.00 | 0.00 | 0.00 | 90 | 1011.1 |
| 20260506160408 | 56 | 77 | 0.9 | 2.6 | 0.00 | 0.00 | 0.00 | 90 | 1010.9 |
| 20260506155906 | 56 | 92 | 0.9 | 1.7 | 0.00 | 0.00 | 0.00 | 90 | 1011.0 |
| 20260506155403 | 56 | 201 | 0.9 | 0.9 | 0.00 | 0.00 | 0.00 | 90 | 1010.9 |
| 20260506153525 | 56 | 88 | 0.9 | 2.6 | 0.00 | 0.00 | 0.00 | 90 | 1010.5 |
| 20260506153023 | 56 | 164 | 0.9 | 0.9 | 0.00 | 0.00 | 0.00 | 90 | 1010.5 |
| 20260506152519 | 56 | 202 | 2.6 | 2.6 | 0.00 | 0.00 | 0.00 | 90 | 1010.6 |
| 20260506152018 | 56 | 179 | 0.9 | 2.6 | 0.00 | 0.00 | 0.00 | 91 | 1010.7 |
| 20260506151515 | 56 | 121 | 2.6 | 2.6 | 0.00 | 0.00 | 0.00 | 91 | 1010.8 |
| 20260506151012 | 56 | 125 | 0.9 | 1.7 | 0.00 | 0.00 | 0.00 | 91 | 1010.8 |
| 20260506150508 | 56 | 216 | 1.7 | 4.3 | 0.00 | 0.00 | 0.00 | 91 | 1011.1 |
| 20260506150005 | 56 | 203 | 0.9 | 2.6 | 0.00 | 0.00 | 0.00 | 90 | 1011.2 |
| 20260506145502 | 57 | 150 | 1.7 | 2.6 | 0.00 | 0.00 | 0.00 | 89 | 1011.2 |
| 20260506144959 | 57 | 207 | 0.9 | 2.6 | 0.00 | 0.00 | 0.00 | 89 | 1011.4 |
| 20260506144456 | 57 | 193 | 1.7 | 1.7 | 0.00 | 0.00 | 0.00 | 88 | 1011.5 |
| 20260506143954 | 57 | 60 | 0.9 | 2.6 | 0.00 | 0.00 | 0.00 | 87 | 1011.6 |
| 20260506143451 | 58 | 203 | 2.6 | 4.3 | 0.00 | 0.00 | 0.00 | 87 | 1011.5 |
| 20260506142949 | 58 | 189 | 2.6 | 2.6 | 0.00 | 0.00 | 0.00 | 85 | 1011.6 |
| 20260506142446 | 59 | 106 | 0.9 | 2.6 | 0.00 | 0.00 | 0.00 | 83 | 1011.3 |
| 20260506141944 | 59 | 204 | 1.7 | 2.6 | 0.00 | 0.00 | 0.00 | 83 | 1011.2 |
| 20260506141442 | 58 | 116 | 0.9 | 1.7 | 0.00 | 0.00 | 0.00 | 85 | 1011.2 |
| 20260506140941 | 58 | 150 | 0.9 | 1.7 | 0.00 | 0.00 | 0.00 | 85 | 1011.2 |
| 20260506140437 | 59 | 106 | 0.9 | 1.7 | 0.00 | 0.00 | 0.00 | 84 | 1011.2 |
| 20260506135934 | 59 | 107 | 0.9 | 1.7 | 0.00 | 0.00 | 0.00 | 84 | 1010.9 |
| 20260506135431 | 58 | 183 | 0.0 | 0.9 | 0.00 | 0.00 | 0.00 | 86 | 1011.0 |
| 20260506134927 | 58 | 85 | 0.9 | 0.9 | 0.00 | 0.00 | 0.00 | 86 | 1011.0 |